Regional Weather Roundup
Issued by NWS

Home | Current Version | Previous Version | Graphics & Text | Print | Product List | Glossary On
Versions: 1 2 3 4 5 6 7 8 9 10 11 12 13 14 15 16 17 18 19 20 21 22 23 24 25 26 27 28 29 30 31 32 33 34 35 36 37 38 39 40 41 42 43 44 45 46 47 48 49 50
217
ASUS43 KTOP 111459
RWRKS

WEATHER ROUNDUP FOR KANSAS
NATIONAL WEATHER SERVICE GOODLAND KS
900 AM CST THU FEB 11 2016

NOTE:  "FAIR" INDICATES FEW OR NO CLOUDS BELOW 12,000 FEET WITH NO
SIGNIFICANT WEATHER AND/OR OBSTRUCTIONS TO VISIBILITY.

KSZ001>006-013>018-027>032-041>047-111600-
NORTHWEST KANSAS

CITY           SKY/WX    TMP DP  RH WIND       PRES   REMARKS
GOODLAND       CLOUDY    35  24  64 SW10      30.15R WCI  27
HAYS           CLOUDY    27  18  69 NE6       30.23F
HILL CITY      CLOUDY    28  26  92 S5        30.22S FOG
RUSSELL        CLOUDY    28  25  88 NE10      30.22F WCI  19
$$

KSZ061>065-074>080-084>089-111600-
SOUTHWEST KANSAS

CITY           SKY/WX    TMP DP  RH WIND       PRES   REMARKS
DODGE CITY     SUNNY     31  27  85 N12       30.22R WCI  22
ELKHART          N/A     37  23  56 W3          N/A
GARDEN CITY    SUNNY     32  28  85 NW5       30.20S
GREAT BEND     SUNNY     28  19  69 NE10      30.25R WCI  19
LIBERAL        SUNNY     34  27  75 NW6       30.21S
$$

KSZ066>073-081>083-090>101-111600-
SOUTHEAST KANSAS

CITY           SKY/WX    TMP DP  RH WIND       PRES   REMARKS
CHANUTE        SUNNY     28  21  75 NE9       30.25R
COFFEYVILLE    SUNNY     30  22  72 NE15      30.25R WCI  19
HUTCHINSON     CLOUDY    28  22  78 NE8       30.25R
MEDICINE LODGE   N/A     33  27  78 NE10      30.23R WCI  25
NEWTON         SUNNY     27  18  69 NE12G17   30.26R WCI  16
PARSONS        SUNNY     29  22  75 NE10G17   30.25R WCI  20
WICHITA INTL   MOSUNNY   30  22  72 N15       30.23R WCI  19
WICHITA JABRA  SUNNY     27  23  85 NE12      30.24R WCI  17
WINFIELD       SUNNY     31  23  72 NE13      30.24R WCI  21
$$

KSZ007>012-019>026-033>040-048>060-102>105-111600-
NORTHEAST KANSAS

CITY           SKY/WX    TMP DP  RH WIND       PRES   REMARKS
CONCORDIA      CLOUDY    23  20  88 SE6       30.27R FOG
EMPORIA        PTSUNNY   25  21  85 NE10      30.26R WCI  15
LAWRENCE       SUNNY     26  20  77 NE8       30.30R
MANHATTAN      CLOUDY    25  22  88 NE10      30.29R WCI  15
OLATHE IND     SUNNY     25  18  74 E9        30.28R
OLATHE EXE     SUNNY     24  18  77 E12       30.27R WCI  13
SALINA         CLOUDY    28  23  81 NE6       30.28R
TOPEKA BILLARD SUNNY     26  20  77 NE8       30.30R
TOPEKA FORBES  MOSUNNY   27  20  75 NE8       30.28R
$$




USA.gov is the U.S. government's official web portal to all federal, state and local government web resources and services.